Miscellaneous Local Product
Issued by NWS Hastings, NE

Home | Current Version | Previous Version | Graphics & Text | Print | Product List | Glossary On
Versions: 1 2 3 4 5 6 7 8 9 10 11 12 13 14 15 16 17 18 19 20 21 22 23 24 25 26 27 28 29 30 31 32 33 34 35 36 37 38 39 40 41 42 43 44 45 46 47 48 49 50
000
AXUS43 KGID 241502
MISGRI

GID CWA HOURLY WEATHER ROUNDUP
NATIONAL WEATHER SERVICE HASTINGS NE
1000 AM CDT MON JUL 24 2017

NOTE: "FAIR" INDICATES FEW OR NO CLOUDS BELOW 12,000 FEET WITH NO
SIGNIFICANT WEATHER AND/OR OBSTRUCTIONS TO VISIBILITY.

...SOUTH CENTRAL NEBRASKA...

CITY           SKY/WX    TMP DP  RH WIND       PRES   REMARKS
GRAND ISLAND   SUNNY     75  65  70 S10       30.03F
HASTINGS       MOSUNNY   75  63  66 S12       30.05S
KEARNEY        SUNNY     76  66  71 S12       30.03F
ORD            SUNNY     76  60  57 S13G21    30.01F
YORK           SUNNY     73  64  73 SE8       30.04S
AURORA         SUNNY     74  66  78 SE12      30.03F
LEXINGTON      SUNNY     77  67  70 S10       30.03S
HOLDREGE       SUNNY     75  66  72 S9        30.04S
HEBRON         SUNNY     80  66  62 SE7       30.02F

...NEBRASKA PANHANDLE...

CITY           SKY/WX    TMP DP  RH WIND       PRES   REMARKS
CHADRON        SUNNY     83  57  41 S17       29.90F
ALLIANCE       SUNNY     83  60  45 S22       29.98S
SCOTTSBLUFF    SUNNY     83  58  42 SE9       29.97F
SIDNEY         SUNNY     81  60  48 SW16G26   30.06R

...WESTERN AND NORTH CENTRAL NEBRASKA...

CITY           SKY/WX    TMP DP  RH WIND       PRES   REMARKS
VALENTINE      SUNNY     80  60  50 S13       29.96F
AINSWORTH      SUNNY     78  62  57 S16       29.98F
ONEILL         SUNNY     75  63  67 SE16      30.01F
BROKEN BOW     SUNNY     77  63  61 S14G22    30.02F
IMPERIAL       SUNNY     82  62  50 SW15G22   30.03F
NORTH PLATTE   SUNNY     79  66  64 S7        30.01F
MCCOOK         SUNNY     79  65  62 S5        30.02F

...EASTERN NEBRASKA...

CITY           SKY/WX    TMP DP  RH WIND       PRES   REMARKS
NORFOLK        SUNNY     75  60  59 S9        30.03S
SO SIOUX CITY  MOSUNNY   71  63  75 SE6       30.03F
TEKAMAH        MOSUNNY   72  62  71 VRB7      30.04S
COLUMBUS       SUNNY     74  63  68 SE7       30.04F
ALBION         SUNNY     73  64  72 SE9       30.03F
OMAHA EPPLEY   MOSUNNY   75  61  61 SE9       30.04S
MILLARD        SUNNY     77  63  62 SE6       30.03F
LINCOLN        SUNNY     76  63  64 SE9       30.04F
NEBRASKA CITY  SUNNY     73  66  78 SE5       30.05S
BEATRICE       SUNNY     77  65  66 SE7       30.03S
FALLS CITY     SUNNY     75  65  70 E5        30.03S

...NORTHERN KANSAS...

CITY           SKY/WX    TMP DP  RH WIND       PRES   REMARKS
GOODLAND       SUNNY     81  65  58 S12       30.07S
HILL CITY      SUNNY     78  66  66 CALM      30.03F
NORTON         SUNNY     79  61  53 E5        30.02F
PHILLIPSBURG   SUNNY     79  66  65 E6        30.02F
SMITH CENTER   SUNNY     79  66  65 SE9       30.03S
HAYS             N/A     82  66  58 CALM      30.03S
RUSSELL        SUNNY     83  66  56 S5        30.01S
CONCORDIA      SUNNY     78  67  68 SE9       30.02S
SALINA         SUNNY     83  72  69 SE6       30.01S
TOPEKA         SUNNY     79  69  71 E9        30.01F



USA.gov is the U.S. government's official web portal to all federal, state and local government web resources and services.